sat.trackr.live / text

‹ back to catalog

STARLINK-35101

NORAD 65700 · 2025-212AA

PAYLOAD ACTIVE UNKNOWN

§ Identity

Operator
Country
US
Launch date
2025-09-21
Launch site
AFETR
Launch vehicle
Mass (kg)
RCS (m²)

Purposes: comms

External: N2YO · Heavens-Above · Gunter

§ Orbital elements

Epoch: 2026-05-24T20:50:27.418560Z

Period
93.85 min
Inclination
53.1606°
Eccentricity
0.0001191
Mean motion
15.34404174 rev/d
Perigee alt
461.9 km
Apogee alt
463.5 km
Semi-major
6,840.8 km
B*
9.1495e-4
RAAN
350.6354°
Arg perigee
70.5771°
Mean anomaly
289.5361°
Rev number
3,887

§ Raw data

STARLINK-351011 65700U 25212AA  26144.86837290  .00030667  00000+0  91495-3 0  99922 65700  53.1606 350.6354 0001191  70.5771 289.5361 15.34404174 38879

JSON: /api/v1/satellites/65700 · /tle

For live sub-satellite position, see the globe view (requires WebGL).

§ Visibility from observer

Set your observer location to see the next 7 days of passes ≥ 10°. The values pass through the URL so the page stays shareable.

No JS? Fill the form by hand. The geolocation button needs JavaScript.